sat.trackr.live / text

‹ back to catalog

STARLINK-37350

NORAD 68750 · 2026-082Y

PAYLOAD ACTIVE UNKNOWN

§ Identity

Operator
Country
US
Launch date
2026-04-15
Launch site
AFWTR
Launch vehicle
Mass (kg)
RCS (m²)

Purposes: comms

External: N2YO · Heavens-Above · Gunter

§ Orbital elements

Epoch: 2026-09-20T01:27:25.403616Z

Period
93.91 min
Inclination
97.2861°
Eccentricity
0.0002211
Mean motion
15.33445075 rev/d
Perigee alt
464.0 km
Apogee alt
467.1 km
Semi-major
6,843.7 km
B*
3.0723e-4
RAAN
124.2308°
Arg perigee
94.6997°
Mean anomaly
265.4498°
Rev number
2,417

§ Raw data

STARLINK-373501 68750U 26082Y   26263.06071069  .00009857  00000+0  30723-3 0  99982 68750  97.2861 124.2308 0002211  94.6997 265.4498 15.33445075 24170

JSON: /api/v1/satellites/68750 · /tle

For live sub-satellite position, see the globe view (requires WebGL).

§ Visibility from observer

Set your observer location to see the next 7 days of passes ≥ 10°. The values pass through the URL so the page stays shareable.

No JS? Fill the form by hand. The geolocation button needs JavaScript.